Back to catalog

FENGYUN 1C DEB

AliveSSO
NORAD 31737·DEBRIS·🇨🇳 China

Launched May 10, 1999 from Taiyuan Satellite Launch Center

Loading…

Next Passes (next 24 hours)

TLE

FreshSource: Space-Track

Epoch: Sep 13, 2026, 13:35 UTC

1 31737U 99025CEL 26256.56659249  .00001672  00000-0  24252-3 0  9997
2 31737  97.8900 286.4876 0143172 216.8538 296.1883 14.70618845 22373

Track FENGYUN 1C DEB in real time with AllMySat

Download on the App Store